RH
20 21 23 17 16 15 15 15 17 16 15 17 20 20 16 25 31 37 44 43 49 52 58 67 64 68 64 69 73 78 89 96 94 90 81 69 66 66 71 86 87 87 84 78
19 25 17 15 13 14 16 18 19 17 15 17 17 16 13 22 30 31 36 46 46 52 58 66 67 65 68 73 70 69 69 79 86 76 71 63 63 63 69 84 81 98 78 66
21 18 15 19 18 20 20 21 21 20 17 15 15 16 15 18 26 27 28 35 42 53 43 53 62 66 64 64 72 69 68 67 74 70 69 68 70 69 72 85 98 95 73 81
18 15 19 20 20 19 22 16 18 20 21 40 19 28 19 14 19 25 25 30 35 45 43 48 50 56 64 64 67 72 69 66 71 74 72 72 65 66 68 83 95 99 92 80
18 16 20 21 20 16 20 19 20 21 23 21 18 16 18 11 13 17 22 27 28 34 36 40 49 49 54 60 65 72 70 68 70 82 76 74 74 69 72 80 93 100 80 78
15 14 15 16 16 18 17 21 22 22 24 30 21 19 21 17 12 12 14 20 25 28 32 34 36 44 49 59 68 69 71 70 71 79 86 81 81 75 67 81 93 98 99 72
18 18 16 17 20 19 22 26 34 37 34 33 20 21 16 13 13 13 14 17 19 24 30 34 32 35 41 52 65 70 70 66 72 79 84 89 86 84 79 92 88 97 86 70
23 24 17 18 19 23 22 23 34 42 39 29 19 18 15 11 11 12 14 17 22 23 23 31 34 35 37 42 55 69 68 70 67 81 88 94 96 92 92 96 98 84 86 86
20 19 13 15 16 17 21 26 19 29 28 35 22 16 13 10 11 14 12 14 18 24 24 24 30 35 39 44 47 62 70 68 68 74 90 97 97 99 97 90 98 99 97 99
16 22 14 16 17 17 21 20 30 27 37 42 22 18 16 14 14 12 12 13 17 27 26 27 27 31 38 42 49 59 70 63 66 75 93 97 100 99 91 76 70 85 97 100
15 19 20 20 24 21 23 27 24 21 26 37 33 21 14 13 12 13 13 14 14 18 27 28 29 31 36 43 50 60 70 68 62 69 83 97 100 100 93 86 97 97 100 100
17 20 24 24 17 14 17 22 22 32 29 28 31 28 13 13 12 14 14 15 16 18 21 29 34 34 36 43 49 57 67 72 67 68 77 93 100 100 100 100 95 99 99 100
18 22 31 24 21 21 23 21 20 22 23 30 53 32 13 13 14 14 14 14 16 19 19 27 35 40 44 48 52 57 66 69 66 70 79 94 100 99 99 99 100 100 99 100
22 20 25 31 23 20 25 19 19 22 39 32 27 20 14 13 14 13 14 15 14 17 20 22 31 38 48 55 60 63 76 80 82 81 86 99 100 99 99 99 99 100 100 95
22 26 21 18 16 15 16 18 18 21 21 28 22 19 13 13 13 13 16 17 18 17 18 22 28 40 52 67 83 98 89 88 90 97 98 98 99 99 100 99 100 100 97 96
22 30 24 22 18 16 16 14 15 14 14 15 15 16 12 13 12 13 16 19 20 26 30 26 32 47 61 80 92 99 100 100 100 99 98 100 100 100 100 100 100 100 98 99
28 34 29 35 20 21 34 20 17 16 15 16 22 17 13 13 13 14 15 21 27 39 46 44 49 67 78 87 99 98 98 98 99 100 100 100 100 95 97 99 100 100 98 93
32 32 34 49 63 60 25 18 16 18 16 15 16 15 13 13 14 22 26 25 38 48 58 64 70 77 84 92 99 99 99 99 99 99 100 99 96 99 99 99 97 94 94 96
32 38 49 57 50 30 20 22 24 21 20 15 15 14 14 14 22 27 33 35 45 54 61 68 74 80 83 86 88 92 96 99 100 100 100 98 98 99 94 89 92 94 89 96
33 41 52 52 54 60 27 18 21 17 30 16 15 15 16 20 30 16 39 49 58 60 63 68 73 75 77 80 82 85 89 94 100 99 100 99 90 86 97 93 98 87 77 71
63 67 75 59 56 33 18 17 20 38 36 16 16 16 16 20 22 37 50 56 56 58 62 68 71 72 76 81 85 85 90 92 96 98 96 83 91 86 80 79 74 66 66 72
62 63 83 62 73 66 26 29 31 28 20 21 20 19 21 31 46 49 53 55 57 59 64 64 68 73 79 80 80 78 82 89 90 85 83 80 74 69 70 71 72 67 64 63
77 48 55 44 44 30 29 23 25 26 29 24 26 23 26 46 47 50 53 56 57 60 59 63 69 76 77 76 75 75 75 79 81 82 78 75 68 59 54 56 51 43 47 57
28 24 44 42 32 29 31 31 29 32 32 28 34 29 33 46 46 49 51 54 57 58 60 63 69 70 70 68 69 73 76 78 74 72 69 62 56 45 32 36 40 46 61 62
26 24 32 34 28 24 32 39 36 34 37 37 35 35 36 46 47 47 50 52 54 57 61 64 65 68 71 74 77 75 72 69 68 62 55 48 31 34 36 32 34 29 18 11
24 33 49 47 28 35 31 47 45 41 40 44 45 41 42 45 47 48 49 53 55 58 62 66 73 75 75 74 72 70 67 61 55 50 44 29 23 20 39 48 51 27 35 19
Wind_Speed
20 12 14 16 14 15 11 10 11 7 5 6 2 15 7 11 8 10 13 15 15 17 18 20 22 23 25 27 24 21 18 17 16 15 16 16 17 18 17 19 20 20 20 20
13 14 17 4 6 8 10 12 11 7 1 7 12 5 8 12 15 15 16 18 18 19 22 22 25 28 27 27 22 21 19 17 15 15 16 16 17 18 18 20 20 18 20 21
17 13 10 7 9 10 11 12 10 8 9 10 10 6 9 11 12 14 17 18 21 23 23 25 26 28 28 27 25 23 20 18 18 16 16 16 17 16 18 19 19 23 22 20
17 17 9 12 12 10 13 10 7 11 13 2 15 3 18 15 14 14 17 20 22 24 24 25 26 28 29 28 26 25 23 21 20 21 19 19 18 19 18 20 20 21 21 23
18 18 12 15 14 12 13 1 8 11 11 14 5 8 9 12 13 17 17 21 22 23 25 27 29 30 29 28 28 26 25 24 23 23 22 20 20 19 16 19 18 20 23 22
20 16 15 18 8 10 6 7 10 10 12 9 12 6 12 9 5 6 14 22 22 24 25 26 28 28 29 29 29 27 28 27 25 24 25 24 22 21 19 21 20 20 22 23
21 15 14 6 10 10 10 12 7 6 6 9 5 5 12 1 5 2 4 6 15 23 26 28 28 29 29 30 30 28 28 29 28 27 26 27 26 23 24 24 24 26 28 26
17 20 21 15 16 11 16 15 6 7 7 8 9 6 1 5 2 4 4 7 8 14 26 31 30 30 30 30 30 29 29 29 29 29 29 27 26 24 24 25 25 26 25 26
19 22 23 17 16 14 14 16 12 7 3 4 7 8 9 4 4 2 1 3 4 7 16 26 30 30 29 29 31 34 30 28 28 29 27 26 25 25 26 26 27 26 26 29
6 16 11 15 10 12 12 12 9 8 9 9 13 9 6 7 3 5 3 4 4 1 6 14 22 27 28 27 28 29 28 28 27 27 27 24 24 26 28 27 23 24 23 24
18 11 16 12 17 17 12 11 9 10 12 7 8 6 8 2 4 4 3 1 2 3 4 7 13 19 24 25 25 26 26 26 26 25 24 23 21 23 23 24 22 21 20 20
23 11 12 16 16 19 18 19 18 9 13 9 9 11 11 6 11 4 8 6 5 3 2 5 7 11 15 19 21 22 22 23 23 22 22 21 21 24 21 23 22 18 19 21
21 14 12 15 11 7 12 17 14 17 13 13 10 9 7 4 4 10 11 11 7 9 7 6 8 10 12 14 17 18 18 17 19 18 24 27 24 21 21 20 19 17 15 17
23 17 20 16 17 15 18 19 19 16 10 13 15 17 14 11 13 12 14 11 10 7 11 10 9 10 11 13 14 15 18 21 26 28 28 24 21 17 16 16 15 13 13 16
18 23 19 21 19 13 17 19 21 19 18 19 16 18 16 10 8 12 10 5 5 10 10 11 11 11 11 13 14 18 22 22 22 21 21 19 17 14 12 10 11 12 13 10
20 16 22 21 18 18 15 15 17 18 19 19 19 20 14 16 12 9 12 8 8 5 5 7 9 11 12 12 12 12 14 15 16 17 16 14 12 11 11 11 14 15 11 11
15 15 17 17 19 19 18 18 17 17 18 16 17 14 15 12 10 12 15 7 9 6 5 6 10 12 12 13 14 11 13 14 13 13 14 14 14 14 14 14 13 12 11 8
13 15 14 8 1 15 10 15 17 19 18 16 17 17 15 15 16 5 5 9 9 8 9 10 12 13 13 15 15 15 14 15 16 17 17 17 16 15 16 15 12 9 6 5
11 11 9 8 12 14 17 10 9 13 16 16 18 18 17 15 1 9 9 8 11 12 13 14 15 16 17 18 18 18 18 18 18 18 17 17 15 17 15 12 7 4 3 3
11 11 9 6 15 19 14 14 12 13 13 16 18 12 11 3 5 9 17 17 17 16 18 19 19 19 18 18 18 19 19 18 17 17 17 17 15 12 5 4 6 6 6 5
6 4 11 11 8 9 13 14 14 14 9 14 11 9 9 9 6 12 19 19 19 19 19 19 18 17 17 17 18 19 18 18 18 17 16 14 8 9 9 8 7 5 4 4
10 9 5 8 8 12 11 10 11 13 16 8 9 10 10 9 14 17 19 21 21 21 20 19 19 18 17 18 18 18 17 17 16 16 13 12 11 8 7 7 5 4 3 4
6 6 5 7 5 8 20 13 20 9 7 9 9 10 11 18 18 21 22 23 23 22 21 19 20 20 19 18 18 19 18 17 16 14 13 11 9 8 7 5 4 2 3 4
11 18 8 11 6 14 11 14 14 7 10 8 7 9 14 19 19 23 24 25 25 24 22 22 22 21 20 18 18 17 17 15 14 13 11 9 7 5 4 1 2 2 4 6
10 6 11 18 19 23 18 16 15 13 13 12 12 11 15 18 22 24 25 26 25 24 24 23 23 22 20 19 18 16 15 15 14 13 11 8 7 5 4 5 6 6 11 10
10 11 9 8 11 11 17 4 7 14 16 14 12 13 17 21 23 26 26 26 25 24 24 23 21 21 19 18 16 14 13 13 12 11 9 8 5 5 3 3 7 10 11 12
Wind_Direction
204 222 232 244 224 265 313 299 277 242 114 277 279 287 111 153 166 168 178 186 175 177 175 170 170 169 171 174 180 182 189 190 186 183 189 191 194 197 199 215 207 216 226 232
212 230 251 256 275 252 247 264 268 274 119 243 273 251 159 163 174 186 183 185 185 193 176 183 181 184 186 190 190 191 192 198 196 196 199 200 200 202 204 223 220 219 227 233
226 231 223 211 215 238 238 262 282 283 280 259 261 247 168 184 176 202 182 189 190 190 190 188 191 193 198 201 202 203 206 204 205 201 202 203 204 203 207 224 224 227 234 229
221 243 208 221 243 235 264 222 259 273 267 70 260 220 259 166 194 201 195 191 190 193 198 197 196 199 202 205 208 207 204 205 208 204 206 205 205 204 212 219 229 227 232 233
221 225 203 229 238 245 264 194 247 261 274 284 243 251 174 199 194 190 200 200 197 199 196 201 203 205 205 207 208 208 208 209 209 214 207 211 209 212 214 223 237 231 237 232
233 204 219 230 238 252 233 226 238 244 248 248 215 273 172 186 318 115 175 197 207 203 202 205 205 205 208 208 209 210 211 212 211 213 215 213 217 213 218 222 218 229 235 242
218 200 213 223 206 189 205 223 226 210 204 249 87 247 256 280 132 327 298 180 206 214 210 208 206 203 208 209 209 208 210 212 214 214 216 218 219 222 224 229 231 230 242 252
209 212 206 189 225 190 210 224 217 225 228 240 139 248 228 90 27 245 251 235 227 226 220 215 209 207 208 210 211 212 213 214 213 216 218 219 220 222 228 236 239 244 251 250
203 218 199 201 210 245 204 221 261 272 255 297 283 229 243 195 238 227 112 264 227 248 229 218 214 212 209 210 210 214 212 215 214 217 216 220 222 221 221 233 238 246 252 258
223 212 195 178 215 221 267 221 210 229 252 237 251 226 278 164 159 154 184 82 105 139 211 213 217 216 217 214 215 214 215 215 214 214 217 220 221 224 224 234 248 261 266 262
220 232 180 162 208 207 202 233 230 241 234 250 263 281 57 47 179 224 222 239 39 93 149 194 209 217 217 217 216 214 217 215 215 215 219 219 218 223 226 238 248 269 269 254
216 205 218 213 222 225 203 207 219 237 242 225 259 279 321 279 267 303 256 235 261 232 181 173 188 198 205 211 213 213 214 213 213 211 213 225 215 226 231 236 248 250 249 238
207 221 219 215 188 221 240 242 235 225 245 257 222 248 300 262 237 224 249 271 226 235 226 196 184 187 189 192 195 198 199 201 201 203 205 214 224 228 230 236 241 249 250 238
216 209 218 219 211 202 215 233 232 239 233 244 254 271 271 257 235 243 241 221 250 219 226 226 204 189 183 179 178 176 176 180 186 196 207 215 223 221 228 234 237 231 211 191
213 222 220 230 242 234 214 215 227 233 241 244 254 259 271 268 301 301 328 257 234 234 231 226 219 188 176 169 164 193 195 197 201 205 206 209 209 209 208 211 208 190 176 186
210 222 227 236 232 241 240 237 236 241 236 247 251 253 268 287 281 261 278 267 251 247 241 222 207 187 174 164 158 195 190 182 185 186 186 183 183 183 179 173 169 176 176 164
208 219 222 230 234 235 239 238 249 247 246 242 252 267 267 273 281 272 264 227 251 203 188 172 166 167 168 164 159 173 164 168 174 172 162 162 163 164 159 156 161 156 155 174
231 212 222 208 239 231 235 235 240 243 253 245 245 257 270 284 282 311 269 241 210 185 158 147 150 149 151 147 142 145 144 145 147 146 148 154 157 152 153 158 155 161 184 213
242 224 227 210 221 243 235 204 218 239 250 254 259 263 269 287 97 231 222 211 184 165 150 145 144 143 142 141 140 140 137 137 136 137 142 143 148 152 151 153 173 204 131 125
229 243 223 184 232 238 236 238 213 255 255 256 267 266 276 190 256 301 169 166 161 160 154 148 144 142 142 143 143 140 138 140 139 142 142 144 144 141 153 119 127 161 171 184
176 206 220 218 237 244 226 222 176 222 242 261 260 269 252 228 259 151 159 164 162 159 153 148 145 144 146 145 143 141 139 137 137 137 142 143 132 139 149 152 156 165 185 208
188 193 189 229 237 232 134 128 190 216 249 257 246 260 240 177 150 156 161 163 162 157 154 151 148 147 147 147 146 142 142 143 143 141 141 140 146 145 148 155 166 185 213 250
234 256 231 218 221 263 186 220 220 259 292 262 266 250 205 176 176 173 170 170 167 163 158 155 153 149 150 153 155 151 149 148 145 145 143 143 146 155 164 170 198 210 258 268
226 233 227 256 264 248 242 249 257 261 254 264 253 238 207 190 189 179 175 173 169 166 163 160 157 155 152 153 155 153 150 149 147 145 145 148 149 162 185 174 253 239 255 261
226 223 233 251 263 259 251 259 258 252 247 237 227 223 214 194 191 185 179 176 173 168 164 163 161 158 154 153 151 149 150 153 153 152 153 158 177 186 222 226 232 262 265 273
234 223 223 239 256 249 259 291 235 249 243 242 245 231 203 201 193 186 182 176 172 168 164 161 160 155 152 149 145 144 148 153 153 151 164 183 201 222 215 225 292 284 285 289